{"data":{"norad_id":60184,"intl_designator":"2024-124B","name":"STARLINK-11187 [DTC]","alt_names":[],"object_type":"PAYLOAD","status":"ACTIVE","operator":null,"country":"US","launch_date":"2024-07-03","launch_site_code":"AFETR","launch_vehicle":null,"mission":null,"orbit_class":"UNKNOWN","rcs_meters":null,"size_class":null,"mass_kg":null,"dimensions":null,"purposes":["comms"],"wikipedia_slug":null,"has_3d_model":false,"image_url":null,"decayed_at":null,"tle_current":{"epoch":"2026-05-25T03:24:10.206720Z","epoch_age_seconds":58843,"freshness":"FRESH","line1":"1 60184U 24124B   26145.14178480  .00000592  00000+0  97470-5 0  9990","line2":"2 60184  53.1585 144.2395 0001136  81.1170 278.9976 15.69706951108540","mean_motion":15.69706951,"eccentricity":0.0001136,"inclination_deg":53.1585,"raan_deg":144.2395,"arg_perigee_deg":81.117,"mean_anomaly_deg":278.9976,"bstar":9.747e-6,"rev_number":10854,"period_min":91.736868406083,"perigee_km":358.97005319159,"apogee_km":360.50089781802,"semimajor_km":6737.8724755048,"source":"CELESTRAK","updated_at":"2026-05-25T13:38:19.193299Z"}}}